| time (UTC) | temp F | wind direction | speed MPH | gust MPH | rain 1hr in | rain 24hr in | rain mn in | humidity % | barometer mb |
| 20260510220143 | 64 | 162 | 2.0 | 3.0 | 0.00 | 0.00 | 0.00 | 74 | 1012.8 |
| 20260510215640 | 64 | 144 | 2.0 | 3.0 | 0.00 | 0.00 | 0.00 | 74 | 1013.0 |
| 20260510215139 | 64 | 122 | 3.0 | 3.0 | 0.00 | 0.00 | 0.00 | 74 | 1013.0 |
| 20260510214635 | 64 | 141 | 2.0 | 3.0 | 0.00 | 0.00 | 0.00 | 71 | 1012.9 |
| 20260510214131 | 64 | 136 | 3.0 | 3.0 | 0.00 | 0.00 | 0.00 | 72 | 1013.0 |
| 20260510213629 | 63 | 153 | 2.0 | 3.0 | 0.00 | 0.00 | 0.00 | 72 | 1012.9 |
| 20260510213125 | 63 | 152 | 2.0 | 2.0 | 0.00 | 0.00 | 0.00 | 71 | 1012.8 |
| 20260510212621 | 63 | 155 | 2.0 | 3.0 | 0.00 | 0.00 | 0.00 | 73 | 1012.7 |
| 20260510212119 | 63 | 148 | 2.0 | 3.0 | 0.00 | 0.00 | 0.00 | 72 | 1012.7 |
| 20260510211615 | 63 | 159 | 2.0 | 4.0 | 0.00 | 0.00 | 0.00 | 72 | 1012.6 |
| 20260510211115 | 63 | 145 | 2.0 | 3.0 | 0.00 | 0.00 | 0.00 | 73 | 1012.6 |
| 20260510210612 | 63 | 145 | 2.0 | 3.0 | 0.00 | 0.00 | 0.00 | 72 | 1012.4 |
| 20260510210108 | 63 | 143 | 1.0 | 2.0 | 0.00 | 0.00 | 0.00 | 74 | 1012.3 |
| 20260510205607 | 64 | 153 | 2.0 | 4.0 | 0.00 | 0.00 | 0.00 | 75 | 1012.3 |
| 20260510205102 | 64 | 150 | 4.0 | 4.0 | 0.00 | 0.00 | 0.00 | 74 | 1012.4 |
| 20260510204559 | 64 | 146 | 2.0 | 7.0 | 0.00 | 0.00 | 0.00 | 76 | 1012.0 |
| 20260510204056 | 64 | 141 | 2.0 | 3.0 | 0.00 | 0.00 | 0.00 | 76 | 1012.3 |
| 20260510203553 | 64 | 144 | 3.0 | 4.0 | 0.00 | 0.00 | 0.00 | 76 | 1012.4 |
| 20260510203050 | 64 | 143 | 3.0 | 4.0 | 0.00 | 0.00 | 0.00 | 75 | 1012.2 |
| 20260510202548 | 64 | 161 | 2.0 | 3.0 | 0.00 | 0.00 | 0.00 | 74 | 1012.3 |
| 20260510202045 | 65 | 171 | 1.0 | 3.0 | 0.00 | 0.00 | 0.00 | 78 | 1012.1 |
| 20260510201542 | 65 | 176 | 2.0 | 4.0 | 0.00 | 0.00 | 0.00 | 76 | 1012.1 |
| 20260510201039 | 65 | 153 | 2.0 | 3.0 | 0.00 | 0.00 | 0.00 | 78 | 1012.3 |
| 20260510200534 | 65 | 165 | 2.0 | 3.0 | 0.00 | 0.00 | 0.00 | 78 | 1012.2 |
| 20260510200033 | 66 | 138 | 2.0 | 2.0 | 0.00 | 0.00 | 0.00 | 77 | 1012.4 |
| 20260510195530 | 66 | 141 | 3.0 | 4.0 | 0.00 | 0.00 | 0.00 | 78 | 1012.1 |
| 20260510195026 | 66 | 156 | 2.0 | 3.0 | 0.00 | 0.00 | 0.00 | 78 | 1012.1 |
| 20260510194521 | 67 | 147 | 2.0 | 3.0 | 0.00 | 0.00 | 0.00 | 78 | 1012.2 |
| 20260510194018 | 67 | 144 | 2.0 | 4.0 | 0.00 | 0.00 | 0.00 | 77 | 1012.3 |
| 20260510193512 | 68 | 138 | 2.0 | 2.0 | 0.00 | 0.00 | 0.00 | 72 | 1012.1 |
| 20260510193009 | 68 | 143 | 3.0 | 4.0 | 0.00 | 0.00 | 0.00 | 79 | 1012.1 |
| 20260510192503 | 68 | 167 | 0.0 | 2.0 | 0.00 | 0.00 | 0.00 | 76 | 1011.8 |
| 20260510191959 | 67 | 142 | 2.0 | 5.0 | 0.00 | 0.00 | 0.00 | 81 | 1012.3 |
| 20260510191456 | 67 | 136 | 3.0 | 3.0 | 0.00 | 0.00 | 0.00 | 82 | 1012.2 |
| 20260510190953 | 67 | 151 | 2.0 | 4.0 | 0.00 | 0.00 | 0.00 | 81 | 1012.3 |
| 20260510190450 | 68 | 186 | 0.0 | 2.0 | 0.00 | 0.00 | 0.00 | 76 | 1012.4 |
| 20260510185947 | 68 | 121 | 2.0 | 3.0 | 0.00 | 0.00 | 0.00 | 70 | 1012.4 |
| 20260510185444 | 68 | 147 | 2.0 | 4.0 | 0.00 | 0.00 | 0.00 | 74 | 1012.4 |
| 20260510184942 | 68 | 142 | 0.0 | 2.0 | 0.00 | 0.00 | 0.00 | 77 | 1012.5 |
| 20260510184439 | 68 | 136 | 3.0 | 3.0 | 0.00 | 0.00 | 0.00 | 75 | 1012.6 |
| 20260510183938 | 67 | 134 | 2.0 | 2.0 | 0.00 | 0.00 | 0.00 | 75 | 1012.6 |
| 20260510183436 | 67 | 131 | 4.0 | 4.0 | 0.00 | 0.00 | 0.00 | 74 | 1012.7 |
| 20260510182935 | 66 | 126 | 4.0 | 4.0 | 0.00 | 0.00 | 0.00 | 79 | 1012.7 |
| 20260510182432 | 65 | 146 | 3.0 | 3.0 | 0.00 | 0.00 | 0.00 | 81 | 1012.8 |
| 20260510181927 | 65 | 190 | 1.0 | 2.0 | 0.00 | 0.00 | 0.00 | 80 | 1012.7 |
| 20260510181426 | 65 | 139 | 1.0 | 2.0 | 0.00 | 0.00 | 0.00 | 79 | 1012.4 |
| 20260510180921 | 65 | 153 | 2.0 | 2.0 | 0.00 | 0.00 | 0.00 | 80 | 1012.6 |
| 20260510180419 | 66 | 167 | 2.0 | 2.0 | 0.00 | 0.00 | 0.00 | 78 | 1012.6 |
| 20260510175915 | 66 | 141 | 1.0 | 2.0 | 0.00 | 0.00 | 0.00 | 77 | 1012.3 |
| 20260510175411 | 66 | 145 | 2.0 | 2.0 | 0.00 | 0.00 | 0.00 | 77 | 1012.5 |
| 20260510174907 | 66 | 139 | 2.0 | 3.0 | 0.00 | 0.00 | 0.00 | 76 | 1012.4 |
| 20260510174406 | 67 | 122 | 2.0 | 3.0 | 0.00 | 0.00 | 0.00 | 73 | 1012.4 |
| 20260510173902 | 67 | 165 | 1.0 | 3.0 | 0.00 | 0.00 | 0.00 | 74 | 1012.6 |
| 20260510173357 | 68 | 163 | 1.0 | 2.0 | 0.00 | 0.00 | 0.00 | 73 | 1012.5 |
| 20260510172854 | 69 | 79 | 2.0 | 3.0 | 0.00 | 0.00 | 0.00 | 68 | 1012.7 |
| 20260510172350 | 69 | 189 | 2.0 | 4.0 | 0.00 | 0.00 | 0.00 | 71 | 1012.7 |
| 20260510171846 | 70 | 132 | 3.0 | 3.0 | 0.00 | 0.00 | 0.00 | 66 | 1012.5 |
| 20260510171344 | 71 | 113 | 2.0 | 3.0 | 0.00 | 0.00 | 0.00 | 69 | 1012.6 |
| 20260510170841 | 70 | 194 | 2.0 | 4.0 | 0.00 | 0.00 | 0.00 | 71 | 1012.4 |
| 20260510170337 | 68 | 217 | 2.0 | 3.0 | 0.00 | 0.00 | 0.00 | 75 | 1012.7 |
| 20260510165832 | 66 | 137 | 2.0 | 4.0 | 0.00 | 0.00 | 0.00 | 76 | 1012.7 |
| 20260510165329 | 65 | 144 | 2.0 | 4.0 | 0.00 | 0.00 | 0.00 | 79 | 1012.7 |
| 20260510164827 | 65 | 126 | 3.0 | 5.0 | 0.00 | 0.00 | 0.00 | 76 | 1013.0 |
| 20260510164324 | 66 | 96 | 1.0 | 4.0 | 0.00 | 0.00 | 0.00 | 75 | 1012.6 |
| 20260510163823 | 66 | 121 | 2.0 | 4.0 | 0.00 | 0.00 | 0.00 | 80 | 1012.7 |
| 20260510163320 | 64 | 68 | 3.0 | 4.0 | 0.00 | 0.00 | 0.00 | 82 | 1012.8 |
| 20260510162820 | 64 | 120 | 4.0 | 4.0 | 0.00 | 0.00 | 0.00 | 83 | 1012.8 |
| 20260510162318 | 64 | 142 | 3.0 | 4.0 | 0.00 | 0.00 | 0.00 | 81 | 1012.8 |
| 20260510161813 | 63 | 113 | 2.0 | 2.0 | 0.00 | 0.00 | 0.00 | 81 | 1012.8 |
| 20260510161309 | 63 | 101 | 3.0 | 5.0 | 0.00 | 0.00 | 0.00 | 80 | 1012.9 |
| 20260510160806 | 63 | 139 | 2.0 | 3.0 | 0.00 | 0.00 | 0.00 | 84 | 1012.7 |
| 20260510160303 | 61 | 105 | 4.0 | 5.0 | 0.00 | 0.00 | 0.00 | 86 | 1012.7 |
| 20260510155803 | 61 | 129 | 4.0 | 4.0 | 0.00 | 0.00 | 0.00 | 87 | 1012.9 |
| 20260510155259 | 60 | 118 | 4.0 | 4.0 | 0.00 | 0.00 | 0.00 | 87 | 1013.0 |
| 20260510154755 | 60 | 121 | 3.0 | 3.0 | 0.00 | 0.00 | 0.00 | 88 | 1013.0 |
| 20260510154251 | 60 | 125 | 3.0 | 4.0 | 0.00 | 0.00 | 0.00 | 89 | 1013.0 |
| 20260510153746 | 59 | 124 | 2.0 | 4.0 | 0.00 | 0.00 | 0.00 | 90 | 1012.9 |
| 20260510153242 | 59 | 108 | 2.0 | 4.0 | 0.00 | 0.00 | 0.00 | 90 | 1012.9 |
| 20260510152739 | 59 | 123 | 3.0 | 5.0 | 0.00 | 0.00 | 0.00 | 90 | 1012.9 |
| 20260510152236 | 59 | 135 | 3.0 | 3.0 | 0.00 | 0.00 | 0.00 | 89 | 1013.0 |
| 20260510151732 | 59 | 121 | 4.0 | 5.0 | 0.00 | 0.00 | 0.00 | 91 | 1013.0 |
| 20260510151231 | 59 | 140 | 3.0 | 4.0 | 0.00 | 0.00 | 0.00 | 91 | 1013.0 |
| 20260510150726 | 58 | 125 | 4.0 | 4.0 | 0.00 | 0.00 | 0.00 | 91 | 1013.0 |
| 20260510150222 | 59 | 119 | 3.0 | 4.0 | 0.00 | 0.00 | 0.00 | 92 | 1013.1 |
| 20260510145718 | 58 | 136 | 2.0 | 2.0 | 0.00 | 0.00 | 0.00 | 92 | 1013.1 |
| 20260510145215 | 58 | 123 | 2.0 | 4.0 | 0.00 | 0.00 | 0.00 | 93 | 1013.1 |
| 20260510144711 | 57 | 138 | 2.0 | 3.0 | 0.00 | 0.00 | 0.00 | 95 | 1012.9 |
| 20260510144208 | 57 | 116 | 5.0 | 5.0 | 0.00 | 0.00 | 0.00 | 96 | 1013.1 |
| 20260510143702 | 56 | 131 | 4.0 | 4.0 | 0.00 | 0.00 | 0.00 | 97 | 1013.0 |
| 20260510143159 | 56 | 109 | 3.0 | 4.0 | 0.00 | 0.00 | 0.00 | 98 | 1013.1 |
| 20260510142655 | 56 | 134 | 4.0 | 5.0 | 0.00 | 0.00 | 0.00 | 99 | 1013.1 |
| 20260510142152 | 56 | 115 | 4.0 | 5.0 | 0.00 | 0.00 | 0.00 | 99 | 1013.0 |
| 20260510141649 | 56 | 132 | 3.0 | 4.0 | 0.00 | 0.00 | 0.00 | 99 | 1013.0 |
| 20260510141148 | 56 | 119 | 3.0 | 3.0 | 0.00 | 0.00 | 0.00 | 99 | 1012.9 |
| 20260510140644 | 55 | 114 | 2.0 | 3.0 | 0.00 | 0.00 | 0.00 | 99 | 1012.8 |
| 20260510140143 | 55 | 111 | 3.0 | 4.0 | 0.00 | 0.00 | 0.00 | 99 | 1012.8 |
| 20260510135638 | 55 | 128 | 4.0 | 4.0 | 0.00 | 0.00 | 0.00 | 99 | 1012.8 |
| 20260510135135 | 55 | 119 | 4.0 | 4.0 | 0.00 | 0.00 | 0.00 | 99 | 1012.9 |
| 20260510134632 | 55 | 122 | 4.0 | 4.0 | 0.00 | 0.00 | 0.00 | 99 | 1012.8 |
| 20260510134129 | 55 | 93 | 1.0 | 3.0 | 0.00 | 0.00 | 0.00 | 99 | 1012.9 |
| 20260510133625 | 55 | 119 | 3.0 | 4.0 | 0.00 | 0.00 | 0.00 | 99 | 1012.9 |
| 20260510133120 | 54 | 133 | 3.0 | 4.0 | 0.00 | 0.00 | 0.00 | 99 | 1012.7 |
| 20260510132618 | 53 | 77 | 2.0 | 3.0 | 0.00 | 0.00 | 0.00 | 99 | 1012.6 |
| 20260510132115 | 54 | 119 | 2.0 | 3.0 | 0.00 | 0.00 | 0.00 | 99 | 1012.7 |
| 20260510131612 | 54 | 138 | 3.0 | 3.0 | 0.00 | 0.00 | 0.00 | 99 | 1012.6 |
| 20260510131109 | 53 | 134 | 2.0 | 4.0 | 0.00 | 0.00 | 0.00 | 99 | 1012.5 |
| 20260510130605 | 53 | 126 | 2.0 | 3.0 | 0.00 | 0.00 | 0.00 | 99 | 1012.5 |
| 20260510125559 | 53 | 124 | 2.0 | 3.0 | 0.00 | 0.00 | 0.00 | 99 | 1012.4 |
| 20260510125056 | 53 | 136 | 3.0 | 3.0 | 0.00 | 0.00 | 0.00 | 99 | 1012.5 |
| 20260510124552 | 52 | 134 | 3.0 | 3.0 | 0.00 | 0.00 | 0.00 | 99 | 1012.5 |
| 20260510124050 | 52 | 134 | 3.0 | 4.0 | 0.00 | 0.00 | 0.00 | 99 | 1012.5 |
| 20260510123545 | 53 | 116 | 2.0 | 2.0 | 0.00 | 0.00 | 0.00 | 99 | 1012.4 |
| 20260510123041 | 52 | 134 | 3.0 | 3.0 | 0.00 | 0.00 | 0.00 | 99 | 1012.3 |
| 20260510122537 | 52 | 126 | 2.0 | 4.0 | 0.00 | 0.00 | 0.00 | 99 | 1012.1 |
| 20260510122033 | 52 | 112 | 3.0 | 4.0 | 0.00 | 0.00 | 0.00 | 99 | 1011.8 |
| 20260510121531 | 52 | 123 | 2.0 | 4.0 | 0.00 | 0.00 | 0.00 | 99 | 1012.1 |
| 20260510121028 | 52 | 118 | 3.0 | 4.0 | 0.00 | 0.00 | 0.00 | 99 | 1012.2 |
| 20260510120525 | 52 | 126 | 3.0 | 4.0 | 0.00 | 0.00 | 0.00 | 99 | 1012.0 |
| 20260510120021 | 52 | 125 | 3.0 | 3.0 | 0.00 | 0.00 | 0.00 | 99 | 1012.1 |
| 20260510115518 | 52 | 130 | 2.0 | 3.0 | 0.00 | 0.00 | 0.00 | 99 | 1012.2 |
| 20260510115014 | 52 | 118 | 2.0 | 3.0 | 0.00 | 0.00 | 0.00 | 99 | 1012.1 |
| 20260510114510 | 52 | 138 | 1.0 | 2.0 | 0.00 | 0.00 | 0.00 | 99 | 1012.1 |
| 20260510114007 | 51 | 125 | 3.0 | 3.0 | 0.00 | 0.00 | 0.00 | 99 | 1011.6 |
| 20260510113502 | 51 | 135 | 3.0 | 4.0 | 0.00 | 0.00 | 0.00 | 99 | 1011.7 |
| 20260510113000 | 52 | 145 | 2.0 | 2.0 | 0.00 | 0.00 | 0.00 | 99 | 1011.7 |
| 20260510112456 | 51 | 136 | 2.0 | 3.0 | 0.00 | 0.00 | 0.00 | 99 | 1011.4 |
| 20260510111953 | 51 | 112 | 3.0 | 4.0 | 0.00 | 0.00 | 0.00 | 99 | 1011.5 |
| 20260510111449 | 51 | 130 | 4.0 | 4.0 | 0.00 | 0.00 | 0.00 | 99 | 1011.2 |
| 20260510110945 | 51 | 133 | 4.0 | 4.0 | 0.00 | 0.00 | 0.00 | 99 | 1011.2 |
| 20260510110442 | 51 | 139 | 4.0 | 5.0 | 0.00 | 0.00 | 0.00 | 99 | 1011.2 |
| 20260510105937 | 51 | 129 | 4.0 | 4.0 | 0.00 | 0.00 | 0.00 | 99 | 1011.4 |
| 20260510105432 | 51 | 127 | 4.0 | 5.0 | 0.00 | 0.00 | 0.00 | 99 | 1011.3 |
| 20260510104928 | 51 | 137 | 5.0 | 6.0 | 0.00 | 0.00 | 0.00 | 99 | 1011.1 |
| 20260510104425 | 51 | 132 | 4.0 | 5.0 | 0.00 | 0.00 | 0.00 | 99 | 1011.2 |
| 20260510103922 | 51 | 132 | 4.0 | 5.0 | 0.00 | 0.00 | 0.00 | 99 | 1011.1 |
| 20260510103420 | 51 | 142 | 5.0 | 6.0 | 0.00 | 0.00 | 0.00 | 99 | 1011.2 |
| 20260510102914 | 51 | 127 | 4.0 | 5.0 | 0.00 | 0.00 | 0.00 | 99 | 1011.3 |
| 20260510102410 | 51 | 122 | 5.0 | 5.0 | 0.00 | 0.00 | 0.00 | 99 | 1011.2 |
| 20260510101908 | 51 | 122 | 4.0 | 5.0 | 0.00 | 0.00 | 0.00 | 99 | 1011.2 |
| 20260510101405 | 50 | 127 | 4.0 | 4.0 | 0.00 | 0.00 | 0.00 | 99 | 1011.3 |
| 20260510100902 | 51 | 126 | 4.0 | 5.0 | 0.00 | 0.00 | 0.00 | 99 | 1011.1 |
| 20260510100359 | 51 | 133 | 4.0 | 5.0 | 0.00 | 0.00 | 0.00 | 99 | 1011.0 |
| 20260510095856 | 51 | 132 | 4.0 | 5.0 | 0.00 | 0.00 | 0.00 | 99 | 1011.0 |
| 20260510095350 | 51 | 132 | 4.0 | 5.0 | 0.00 | 0.00 | 0.00 | 99 | 1011.2 |
| 20260510094850 | 51 | 153 | 4.0 | 5.0 | 0.00 | 0.00 | 0.00 | 99 | 1011.2 |
| 20260510094345 | 51 | 137 | 4.0 | 4.0 | 0.00 | 0.00 | 0.00 | 99 | 1011.1 |
| 20260510093842 | 51 | 134 | 3.0 | 5.0 | 0.00 | 0.00 | 0.00 | 99 | 1011.3 |
| 20260510093338 | 51 | 146 | 4.0 | 4.0 | 0.00 | 0.00 | 0.00 | 99 | 1011.3 |
| 20260510092834 | 51 | 119 | 4.0 | 5.0 | 0.00 | 0.00 | 0.00 | 99 | 1011.2 |
| 20260510092330 | 51 | 135 | 4.0 | 4.0 | 0.00 | 0.00 | 0.00 | 99 | 1011.4 |
| 20260510091826 | 51 | 137 | 4.0 | 5.0 | 0.00 | 0.00 | 0.00 | 99 | 1011.4 |
| 20260510091323 | 51 | 127 | 3.0 | 4.0 | 0.00 | 0.00 | 0.00 | 99 | 1011.3 |
| 20260510090820 | 51 | 112 | 3.0 | 3.0 | 0.00 | 0.00 | 0.00 | 99 | 1011.4 |
| 20260510090317 | 51 | 143 | 4.0 | 4.0 | 0.00 | 0.00 | 0.00 | 99 | 1011.5 |
| 20260510085813 | 51 | 104 | 2.0 | 2.0 | 0.00 | 0.00 | 0.00 | 99 | 1011.5 |
| 20260510085313 | 51 | 141 | 3.0 | 4.0 | 0.00 | 0.00 | 0.00 | 99 | 1011.5 |
| 20260510084808 | 51 | 130 | 3.0 | 3.0 | 0.00 | 0.00 | 0.00 | 99 | 1011.6 |
| 20260510084306 | 51 | 144 | 4.0 | 4.0 | 0.00 | 0.00 | 0.00 | 99 | 1011.4 |
| 20260510083802 | 51 | 132 | 3.0 | 4.0 | 0.00 | 0.00 | 0.00 | 99 | 1011.7 |
| 20260510083259 | 51 | 135 | 3.0 | 4.0 | 0.00 | 0.00 | 0.00 | 99 | 1011.6 |
| 20260510082755 | 51 | 124 | 2.0 | 3.0 | 0.00 | 0.00 | 0.00 | 99 | 1011.5 |
| 20260510082252 | 51 | 136 | 3.0 | 4.0 | 0.00 | 0.00 | 0.00 | 99 | 1011.5 |
| 20260510081750 | 51 | 135 | 2.0 | 4.0 | 0.00 | 0.00 | 0.00 | 99 | 1011.6 |
| 20260510081247 | 50 | 133 | 2.0 | 2.0 | 0.00 | 0.00 | 0.00 | 99 | 1011.5 |
| 20260510080742 | 50 | 136 | 2.0 | 2.0 | 0.00 | 0.00 | 0.00 | 99 | 1011.5 |
| 20260510080238 | 50 | 117 | 2.0 | 4.0 | 0.00 | 0.00 | 0.00 | 99 | 1011.5 |
| 20260510075735 | 50 | 82 | 0.0 | 1.0 | 0.00 | 0.00 | 0.00 | 99 | 1011.5 |
| 20260510075233 | 50 | 170 | 2.0 | 4.0 | 0.00 | 0.00 | 0.00 | 99 | 1011.1 |
| 20260510074730 | 50 | 110 | 0.0 | 2.0 | 0.00 | 0.00 | 0.00 | 99 | 1011.2 |
| 20260510074226 | 50 | 123 | 2.0 | 3.0 | 0.00 | 0.00 | 0.00 | 99 | 1010.7 |
| 20260510073722 | 50 | 122 | 2.0 | 3.0 | 0.00 | 0.00 | 0.00 | 99 | 1010.6 |
| 20260510073218 | 50 | 147 | 3.0 | 4.0 | 0.00 | 0.00 | 0.00 | 99 | 1010.5 |
| 20260510072714 | 50 | 139 | 3.0 | 3.0 | 0.00 | 0.00 | 0.00 | 99 | 1010.6 |
| 20260510072211 | 50 | 130 | 3.0 | 3.0 | 0.00 | 0.00 | 0.00 | 99 | 1010.7 |
| 20260510071708 | 50 | 137 | 3.0 | 4.0 | 0.00 | 0.00 | 0.00 | 99 | 1010.8 |
| 20260510071204 | 50 | 135 | 3.0 | 4.0 | 0.00 | 0.00 | 0.00 | 99 | 1010.9 |
| 20260510070702 | 50 | 132 | 2.0 | 3.0 | 0.00 | 0.00 | 0.00 | 99 | 1010.9 |
| 20260510070159 | 50 | 112 | 2.0 | 2.0 | 0.00 | 0.00 | 0.00 | 99 | 1010.9 |
| 20260510065654 | 50 | 137 | 2.0 | 3.0 | 0.00 | 0.00 | 0.00 | 99 | 1011.0 |
| 20260510065150 | 50 | 123 | 2.0 | 3.0 | 0.00 | 0.00 | 0.00 | 99 | 1011.1 |
| 20260510064647 | 50 | 116 | 4.0 | 4.0 | 0.00 | 0.00 | 0.00 | 99 | 1011.0 |
| 20260510064144 | 50 | 136 | 2.0 | 3.0 | 0.00 | 0.00 | 0.00 | 99 | 1011.1 |
| 20260510063642 | 50 | 139 | 2.0 | 2.0 | 0.00 | 0.00 | 0.00 | 99 | 1011.0 |
| 20260510063138 | 50 | 128 | 2.0 | 3.0 | 0.02 | 0.00 | 0.00 | 99 | 1011.1 |
| 20260510062634 | 50 | 140 | 2.0 | 2.0 | 0.02 | 0.00 | 0.00 | 99 | 1011.1 |
| 20260510062130 | 50 | 129 | 2.0 | 3.0 | 0.00 | 0.00 | 0.00 | 99 | 1011.1 |
| 20260510061625 | 50 | 123 | 3.0 | 4.0 | 0.00 | 0.00 | 0.00 | 99 | 1011.1 |
| 20260510061124 | 50 | 117 | 2.0 | 3.0 | 0.00 | 0.00 | 0.00 | 99 | 1011.0 |
| 20260510060619 | 50 | 116 | 2.0 | 4.0 | 0.00 | 0.00 | 0.00 | 99 | 1010.8 |
| 20260510060116 | 50 | 121 | 3.0 | 3.0 | 0.00 | 0.00 | 0.00 | 99 | 1010.7 |
| 20260510055612 | 50 | 120 | 3.0 | 3.0 | 0.00 | 0.00 | 0.00 | 99 | 1010.7 |
| 20260510055110 | 50 | 116 | 3.0 | 4.0 | 0.00 | 0.00 | 0.00 | 99 | 1010.7 |
| 20260510054606 | 50 | 104 | 3.0 | 4.0 | 0.00 | 0.00 | 0.00 | 99 | 1010.8 |
| 20260510054101 | 50 | 118 | 4.0 | 4.0 | 0.00 | 0.00 | 0.00 | 99 | 1010.6 |
| 20260510053600 | 50 | 119 | 2.0 | 2.0 | 0.00 | 0.00 | 0.00 | 99 | 1010.5 |
| 20260510053058 | 50 | 143 | 2.0 | 2.0 | 0.00 | 0.00 | 0.00 | 99 | 1010.6 |
| 20260510052553 | 51 | 145 | 2.0 | 2.0 | 0.00 | 0.00 | 0.00 | 99 | 1010.5 |
| 20260510052050 | 51 | 133 | 3.0 | 4.0 | 0.00 | 0.00 | 0.00 | 99 | 1010.6 |
| 20260510051545 | 51 | 138 | 2.0 | 2.0 | 0.00 | 0.00 | 0.00 | 99 | 1010.7 |
| 20260510051043 | 51 | 133 | 3.0 | 3.0 | 0.00 | 0.00 | 0.00 | 99 | 1010.8 |
| 20260510050540 | 51 | 135 | 3.0 | 4.0 | 0.00 | 0.00 | 0.00 | 99 | 1010.9 |
| 20260510050037 | 51 | 127 | 3.0 | 3.0 | 0.00 | 0.00 | 0.00 | 99 | 1010.8 |
| 20260510045534 | 51 | 132 | 2.0 | 3.0 | 0.00 | 0.00 | 0.00 | 99 | 1010.8 |
| 20260510045030 | 51 | 138 | 2.0 | 3.0 | 0.00 | 0.00 | 0.00 | 99 | 1010.8 |
| 20260510044527 | 51 | 132 | 2.0 | 2.0 | 0.00 | 0.00 | 0.00 | 99 | 1010.9 |
| 20260510044025 | 51 | 167 | 2.0 | 3.0 | 0.00 | 0.00 | 0.00 | 99 | 1010.8 |
| 20260510043520 | 51 | 139 | 3.0 | 3.0 | 0.00 | 0.00 | 0.00 | 99 | 1010.7 |
| 20260510043015 | 51 | 136 | 3.0 | 3.0 | 0.00 | 0.00 | 0.00 | 99 | 1010.8 |
| 20260510042509 | 51 | 130 | 2.0 | 3.0 | 0.00 | 0.00 | 0.00 | 99 | 1010.9 |
| 20260510042005 | 51 | 130 | 3.0 | 4.0 | 0.00 | 0.00 | 0.00 | 99 | 1010.7 |
| 20260510041502 | 51 | 129 | 3.0 | 3.0 | 0.00 | 0.00 | 0.00 | 99 | 1010.9 |
| 20260510041000 | 51 | 134 | 2.0 | 4.0 | 0.00 | 0.00 | 0.00 | 99 | 1010.9 |
| 20260510040456 | 51 | 123 | 3.0 | 4.0 | 0.00 | 0.00 | 0.00 | 99 | 1010.8 |
| 20260510035951 | 51 | 141 | 2.0 | 3.0 | 0.00 | 0.41 | 0.41 | 99 | 1010.7 |
| 20260510035449 | 51 | 119 | 3.0 | 3.0 | 0.00 | 0.41 | 0.41 | 99 | 1010.9 |
| 20260510034948 | 51 | 127 | 3.0 | 4.0 | 0.00 | 0.41 | 0.41 | 99 | 1010.7 |
| 20260510034447 | 51 | 136 | 3.0 | 3.0 | 0.00 | 0.41 | 0.41 | 99 | 1010.6 |
| 20260510033943 | 51 | 120 | 4.0 | 5.0 | 0.00 | 0.41 | 0.41 | 99 | 1010.6 |
| 20260510033439 | 51 | 113 | 5.0 | 5.0 | 0.00 | 0.41 | 0.41 | 99 | 1010.5 |
| 20260510032937 | 51 | 121 | 3.0 | 4.0 | 0.00 | 0.41 | 0.41 | 99 | 1010.4 |
| 20260510032433 | 51 | 129 | 4.0 | 4.0 | 0.00 | 0.41 | 0.41 | 99 | 1010.4 |
| 20260510031928 | 51 | 126 | 3.0 | 3.0 | 0.00 | 0.41 | 0.41 | 99 | 1010.4 |
| 20260510031424 | 51 | 120 | 3.0 | 4.0 | 0.00 | 0.41 | 0.41 | 99 | 1010.5 |
| 20260510030919 | 51 | 121 | 3.0 | 4.0 | 0.00 | 0.41 | 0.41 | 99 | 1010.5 |
| 20260510030415 | 52 | 123 | 2.0 | 4.0 | 0.00 | 0.41 | 0.41 | 99 | 1010.6 |
| 20260510025913 | 52 | 128 | 4.0 | 4.0 | 0.00 | 0.41 | 0.41 | 99 | 1010.6 |
| 20260510025410 | 52 | 121 | 3.0 | 4.0 | 0.00 | 0.41 | 0.41 | 99 | 1010.8 |
| 20260510024908 | 52 | 108 | 2.0 | 3.0 | 0.00 | 0.41 | 0.41 | 99 | 1010.9 |
| 20260510024404 | 52 | 136 | 2.0 | 3.0 | 0.00 | 0.41 | 0.41 | 99 | 1010.8 |
| 20260510023900 | 52 | 135 | 2.0 | 3.0 | 0.00 | 0.41 | 0.41 | 99 | 1010.9 |
| 20260510023356 | 52 | 128 | 3.0 | 3.0 | 0.00 | 0.41 | 0.41 | 99 | 1010.6 |
| 20260510022854 | 52 | 125 | 3.0 | 4.0 | 0.00 | 0.41 | 0.41 | 99 | 1010.6 |
| 20260510022353 | 52 | 129 | 3.0 | 4.0 | 0.00 | 0.41 | 0.41 | 99 | 1010.6 |
| 20260510021851 | 51 | 128 | 3.0 | 3.0 | 0.00 | 0.41 | 0.41 | 99 | 1010.6 |
| 20260510021350 | 51 | 122 | 3.0 | 4.0 | 0.00 | 0.41 | 0.41 | 99 | 1010.6 |
| 20260510020846 | 51 | 151 | 2.0 | 3.0 | 0.00 | 0.41 | 0.41 | 99 | 1010.9 |
| 20260510020346 | 51 | 143 | 2.0 | 2.0 | 0.00 | 0.41 | 0.41 | 99 | 1010.9 |
| 20260510015842 | 51 | 132 | 2.0 | 3.0 | 0.00 | 0.41 | 0.41 | 99 | 1010.7 |
| 20260510015338 | 51 | 135 | 2.0 | 3.0 | 0.00 | 0.41 | 0.41 | 99 | 1010.7 |
| 20260510014833 | 51 | 134 | 2.0 | 3.0 | 0.00 | 0.41 | 0.41 | 99 | 1010.7 |
| 20260510014331 | 51 | 125 | 4.0 | 4.0 | 0.00 | 0.41 | 0.41 | 99 | 1010.4 |
| 20260510013827 | 51 | 132 | 3.0 | 3.0 | 0.00 | 0.41 | 0.41 | 98 | 1010.5 |
| 20260510013323 | 51 | 134 | 3.0 | 3.0 | 0.00 | 0.41 | 0.41 | 98 | 1010.6 |
| 20260510012818 | 51 | 147 | 2.0 | 3.0 | 0.00 | 0.41 | 0.41 | 98 | 1010.4 |
| 20260510012317 | 50 | 147 | 3.0 | 3.0 | 0.00 | 0.41 | 0.41 | 98 | 1010.2 |
| 20260510011812 | 50 | 125 | 3.0 | 4.0 | 0.00 | 0.41 | 0.41 | 98 | 1010.1 |
| 20260510011308 | 50 | 134 | 3.0 | 3.0 | 0.00 | 0.41 | 0.41 | 98 | 1010.3 |
| 20260510010805 | 50 | 135 | 2.0 | 3.0 | 0.00 | 0.41 | 0.41 | 98 | 1010.3 |
| 20260510010302 | 50 | 132 | 3.0 | 4.0 | 0.00 | 0.41 | 0.41 | 98 | 1010.0 |
| 20260510005759 | 50 | 136 | 3.0 | 3.0 | 0.00 | 0.41 | 0.41 | 98 | 1010.0 |
| 20260510005255 | 50 | 145 | 2.0 | 3.0 | 0.00 | 0.41 | 0.41 | 98 | 1010.1 |
| 20260510004753 | 50 | 151 | 2.0 | 2.0 | 0.00 | 0.41 | 0.41 | 98 | 1009.8 |
| 20260510004250 | 51 | 130 | 2.0 | 3.0 | 0.00 | 0.41 | 0.41 | 98 | 1010.0 |
| 20260510003748 | 51 | 133 | 4.0 | 4.0 | 0.00 | 0.41 | 0.41 | 98 | 1009.9 |
| 20260510003244 | 51 | 143 | 2.0 | 2.0 | 0.00 | 0.41 | 0.41 | 98 | 1010.1 |
| 20260510002743 | 51 | 149 | 2.0 | 2.0 | 0.00 | 0.41 | 0.41 | 98 | 1010.1 |
| 20260510002241 | 51 | 145 | 2.0 | 3.0 | 0.00 | 0.41 | 0.41 | 98 | 1010.0 |
| 20260510001737 | 51 | 135 | 2.0 | 2.0 | 0.00 | 0.41 | 0.41 | 98 | 1010.1 |
| 20260510001236 | 51 | 147 | 2.0 | 3.0 | 0.00 | 0.41 | 0.41 | 98 | 1009.9 |
| 20260510000731 | 51 | 141 | 2.0 | 3.0 | 0.00 | 0.41 | 0.41 | 98 | 1009.7 |
| 20260510000229 | 52 | 141 | 2.0 | 2.0 | 0.00 | 0.41 | 0.41 | 98 | 1009.8 |
| 20260509235725 | 52 | 180 | 1.0 | 2.0 | 0.00 | 0.41 | 0.41 | 98 | 1009.7 |
| 20260509235222 | 52 | 167 | 2.0 | 3.0 | 0.00 | 0.41 | 0.41 | 98 | 1009.6 |
| 20260509234718 | 53 | 130 | 3.0 | 4.0 | 0.00 | 0.41 | 0.41 | 98 | 1009.7 |
| 20260509234215 | 53 | 127 | 4.0 | 4.0 | 0.00 | 0.41 | 0.41 | 98 | 1009.7 |
| 20260509233713 | 53 | 135 | 4.0 | 4.0 | 0.00 | 0.41 | 0.41 | 98 | 1009.6 |
| 20260509233210 | 53 | 137 | 3.0 | 4.0 | 0.00 | 0.41 | 0.41 | 98 | 1009.6 |
| 20260509232707 | 53 | 120 | 4.0 | 4.0 | 0.00 | 0.41 | 0.41 | 98 | 1009.8 |
| 20260509232204 | 53 | 129 | 4.0 | 4.0 | 0.00 | 0.41 | 0.41 | 98 | 1009.8 |
| 20260509231700 | 53 | 132 | 3.0 | 3.0 | 0.00 | 0.41 | 0.41 | 98 | 1009.9 |
| 20260509231158 | 53 | 126 | 3.0 | 4.0 | 0.00 | 0.41 | 0.41 | 98 | 1009.9 |
| 20260509230654 | 53 | 121 | 3.0 | 4.0 | 0.00 | 0.41 | 0.41 | 98 | 1010.0 |
| 20260509230151 | 53 | 127 | 4.0 | 4.0 | 0.00 | 0.41 | 0.41 | 98 | 1010.0 |
| 20260509225647 | 53 | 124 | 3.0 | 4.0 | 0.00 | 0.41 | 0.41 | 98 | 1009.9 |
| 20260509225143 | 53 | 137 | 4.0 | 4.0 | 0.00 | 0.41 | 0.41 | 98 | 1009.9 |
| 20260509224638 | 53 | 131 | 4.0 | 4.0 | 0.00 | 0.41 | 0.41 | 98 | 1009.8 |
| 20260509224135 | 53 | 136 | 4.0 | 4.0 | 0.00 | 0.41 | 0.41 | 97 | 1010.1 |
| 20260509223632 | 53 | 123 | 2.0 | 3.0 | 0.00 | 0.41 | 0.41 | 97 | 1010.2 |
| 20260509223130 | 53 | 128 | 2.0 | 3.0 | 0.00 | 0.41 | 0.41 | 97 | 1010.2 |
| 20260509222626 | 53 | 128 | 4.0 | 4.0 | 0.00 | 0.41 | 0.41 | 97 | 1010.1 |
| 20260509222122 | 53 | 126 | 3.0 | 4.0 | 0.00 | 0.41 | 0.41 | 97 | 1010.3 |
| 20260509221618 | 53 | 136 | 2.0 | 3.0 | 0.02 | 0.41 | 0.41 | 97 | 1010.2 |
| 20260509221114 | 53 | 136 | 3.0 | 4.0 | 0.07 | 0.41 | 0.41 | 97 | 1010.1 |
| 20260509220610 | 53 | 131 | 4.0 | 5.0 | 0.12 | 0.40 | 0.40 | 97 | 1010.1 |